Location: Newark
(48.8604°N, 2.3376°E)
Time: 07:59:51
(UTC+00:00)

Envisat - Pass Details

Date: 07 October 2021
Orbit: 764 x 766 km, 98.2° (Epoch: 22 October)

Event Time Altitude Azimuth Distance (km) Brightness Sun altitude
Rises 17:49:17 0° 226° (SW) 3,223 7.1 -6.2°
Reaches altitude 10° 17:54:04 10° 267° (W) 2,305 7.3 -6.9°
Maximum altitude 17:54:52 10° 276° (W) 2,284 7.2 -7.1°
Drops below altitude 10° 17:55:39 10° 285° (WNW) 2,308 7.0 -7.2°
Sets 18:00:30 0° 327° (NNW) 3,242 6.8 -8.0°
